Location: ???????
(55.5931°N, 39.3286°E)
Time: 14:02:51
(UTC+00:00)

Cosmos 923 Rocket - Pass Details

Date: 14 April 2024
Orbit: 755 x 784 km, 74.0° (Epoch: 23 May)

Event Time Altitude Azimuth Distance (km) Brightness Sun altitude
Exits shadow 01:02:01 - 198° (SSW) 2,525 6.2 -10.7°
Reaches altitude 10° 01:02:37 10° 197° (SSW) 2,296 6.0 -10.6°
Maximum altitude 01:07:48 73° 114° (ESE) 807 4.2 -10.0°
Drops below altitude 10° 01:13:05 10° 31° (NNE) 2,331 7.6 -9.4°
Sets 01:15:29 0° 29° (NNE) 3,267 8.5 -9.1°
